FLOCK 2K-07

Last updated on Wed Feb 14 2018 16:20:52 GMT+0000 (Coordinated Universal Time)

1 42862U 17042AP 18045.19322768 .00006986 00000-0 20354-3 0 9998 2 42862 96.9931 307.9969 0010251 188.5712 171.5359 15.35628181 32764
UTC large
Height (km)
Speed (km/s)
/
Latitude / Longitude
Inclination (degrees)
Orbital Period (minutes)
Azimuth
Elevation
Range (km)
Doppler Factor

Next 0 passes for location: London (51.5072 / 0.1276)

Sorry there are no passes over London.